Showing default

COSMOS 87, 1585

Orbit data source: Space-Track

COSMOS 87, 1585 is a payload satellite owned by OKB-10 (CIS) in LEO that was launched on Sat, 18 Sep 1965 UTC via a KOSMOS 65S3 launch vehicle from the Tyuratam Missile And Space Complex (TTMTR). Payload-class satellites include a variety of spacecraft equipped with specific instruments for various scientific and technological missions. These include communications satellites like Starlink; space stations such as the ISS; scientific satellites like the Hubble; Earth observation satellites from companies like Planet Labs, Umbra, and HawkEye 360; GPS; miniature CubeSats for education and research; and military/defense satellites.

Loading next visibility...
Identifier
1585, 1965-073B
Orbit
LEO
Country
Flag of CISCIS
Related business
Manufacturer
OKB-10
Mission
Spacecraft
Bus & Motor
STRELA-1 11F610, Unknown motor
Mass
50 kg wet, 50 kg dry
Launch date (UTC)
1965-09-18 (61 years ago)
Launch vehicle
KOSMOS 65S3
Launch site
Tyuratam Missile And Space Complex (TTMTR)
Object type
Payload
Rocket body
Debris
Shape & HBR
POLY, 0.4 m
Radar Cross Section
Medium (>0.1 m² and <1 m²)

Expand to show TLE details & history
Last TLE update: 6 hours ago

TLE from 6 hours ago
0 COSMOS 87
1 01585U 65073B   26207.31139494 -.00000089  00000-0  45231-4 0  9998
2 01585  56.0584 178.6043 0205994  79.6449  61.8452 12.47463353770633
Epoch: 2026-07-26T07:28Z
TLE epoch observation values (Epoch: 2026-07-26T07:28:24.522Z)
Latitude
29.57097°
Longitude
-79.84204°
Altitude
1,403.298 km
Speed
7.195 km/s
True Right ascension
22h 25m 05s
True Declination
29° 26' 09"
Sunlit
Object was in daylight at epoch
Visualization orbit readout
Latitude
Unknown
Longitude
Unknown
Altitude
Unknown
Speed
Unknown
Apparent Right ascension
Unknown
Apparent Declination
Unknown
Sunlit
N/A
Visualization observer readout
Local Sidereal Time
02:26:54
Azimuth
Unknown
Elevation
Unknown
Doppler factor
Unknown
Orbital elements
Apogee altitude
1,636.715 km
Perigee altitude
1,313.177 km
Semi-major axis
7,853.083 km
Eccentricity
0.0206
Inclination
56.0584°
RAAN
178.6043°
Arg. of periapsis
79.6449°
True anomaly
63.95152°
Mean anomaly
61.8452°
Eccentric anomaly
62.89584°
Mean motion
3.11877 °/min
Orbital period
115.43 mins
BSTAR
0.000045231
Loading maneuver chart data...
Computing Atmospheric mass density...
Loading historical data...
Loading historical data...
Loading historical data...
Loading historical data...
Loading historical data...
Loading historical data...
Loading historical data...

Documentation

Showing up to 5 results
|